Flag for U.S.A. Weather past 2 weeks in Berkeley, California, U.S.A.

Now
73 °F

Sunny.


Feels Like: 76 °F
Forecast: 60 / 83 °F
Wind: 6 mph from Southwest

Location: Metro Oakland International Airport

Current Time: Jul 25, 2014 at 12:14:07 PM

Latest Report: Jul 25, 2014 at 10:53 AM


Visibility: 10 mi

Pressure: 29.88 "Hg

Humidity: 59%

Dew point: 58 °F

Location of BerkeleyLocation

Historic Weather in Berkeley — Graph

°F

Berkeley temperature yesterday

Maximum temperature yesterday: 82 °F (at 2:53 PM)
Minimum temperature yesterday: 62 °F (at 2:53 AM)
Average temperature yesterday: 70 °F

Past Weeks' High & Low Weather Summary

 TemperatureHumidityPressure
High82 °F (Jul 24, 2:53 PM)90% (Jul 16, 1:53 AM)30.15 "Hg (Jul 16, 1:53 AM)
Low57 °F (Jul 14, 4:53 AM)42% (Jul 24, 4:53 PM)29.83 "Hg (Jul 25, 3:53 AM)
Average66 °F72%29.99 "Hg
* Reported Jul 10 10:53 AM — Jul 25 10:53 AM, Berkeley, Weather by CustomWeather, © 2014

Note: Actual official high and low records may vary slightly from our data, if they occured in-between our weather recording intervals... More about our weather records

Advertising

Berkeley weather history for previous 24 hours

 ConditionsComfort  
Time TempWeatherWind HumidityBarometerVisibility
10:53 AM
Jul 25
73 °FSunny.6 mph59%29.88 "Hg10 mi
9:53 AM71 °FSunny.5 mph66%29.88 "Hg9 mi
8:53 AM69 °FPassing clouds.3 mph68%29.89 "Hg9 mi
7:53 AM67 °FPassing clouds.No wind73%29.88 "Hg8 mi
6:53 AM63 °FPassing clouds.No wind81%29.86 "Hg8 mi
5:53 AM62 °FClear.3 mph80%29.84 "Hg9 mi
4:53 AM63 °FClear.12 mph81%29.84 "Hg8 mi
3:53 AM63 °FClear.9 mph81%29.83 "Hg9 mi
2:53 AM63 °FClear.3 mph78%29.83 "Hg9 mi
1:53 AM63 °FClear.5 mph78%29.85 "Hg10 mi
12:53 AM63 °FClear.5 mph78%29.86 "Hg10 mi
11:53 PM
Jul 24
65 °FClear.6 mph73%29.86 "Hg10 mi
10:53 PM65 °FClear.7 mph73%29.86 "Hg10 mi
9:53 PM67 °FClear.10 mph68%29.85 "Hg10 mi
8:53 PM70 °FPassing clouds.9 mph61%29.85 "Hg10 mi
7:53 PM73 °FPassing clouds.10 mph51%29.84 "Hg10 mi
6:53 PM76 °FPassing clouds.13 mph50%29.85 "Hg10 mi
5:53 PM78 °FPassing clouds.15 mph48%29.85 "Hg10 mi
4:53 PM81 °FPassing clouds.13 mph42%29.86 "Hg10 mi
3:53 PM81 °FPassing clouds.15 mph45%29.88 "Hg10 mi
2:53 PM82 °FPassing clouds.14 mph44%29.90 "Hg10 mi
1:53 PM81 °FPassing clouds.12 mph44%29.93 "Hg10 mi
12:53 PM78 °FSunny.7 mph50%29.96 "Hg10 mi
Weather by CustomWeather, © 2014

See weather overviewHow to use our weather pages